sat.trackr.live / text

‹ back to catalog

ATHENA-FIDUS

NORAD 39509 · 2014-006B

PAYLOAD ACTIVE UNKNOWN

§ Identity

Operator
Country
FRIT
Launch date
2014-02-06
Launch site
FRGUI
Launch vehicle
Mass (kg)
RCS (m²)
3.98

Purposes: comms

External: N2YO · Heavens-Above · Gunter

§ Orbital elements

Epoch: 2026-09-12T03:49:09.791040Z

Period
1,436.11 min
Inclination
0.0201°
Eccentricity
0.0001488
Mean motion
1.00271200 rev/d
Perigee alt
35,780.5 km
Apogee alt
35,793.0 km
Semi-major
42,164.9 km
B*
0.0000e+0
RAAN
124.5243°
Arg perigee
60.9737°
Mean anomaly
260.7562°
Rev number
4,595

§ Raw data

ATHENA-FIDUS1 39509U 14006B   26255.15914110  .00000139  00000+0  00000+0 0  99902 39509   0.0201 124.5243 0001488  60.9737 260.7562  1.00271200 45959

JSON: /api/v1/satellites/39509 · /tle

For live sub-satellite position, see the globe view (requires WebGL).

§ Visibility from observer

Set your observer location to see the next 7 days of passes ≥ 10°. The values pass through the URL so the page stays shareable.

No JS? Fill the form by hand. The geolocation button needs JavaScript.